{"data":{"norad_id":62405,"epoch":"2026-05-24T08:14:15.755424Z","epoch_age_seconds":142539,"freshness":"FRESH","line1":"1 62405U 24247AE  26144.34323791  .00057058  00000+0  73872-3 0  9999","line2":"2 62405  44.9765  13.7492 0008756 195.0921 164.9713 15.58097021 79301","mean_motion":15.58097021,"eccentricity":0.0008756,"inclination_deg":44.9765,"raan_deg":13.7492,"arg_perigee_deg":195.0921,"mean_anomaly_deg":164.9713,"bstar":0.00073872,"rev_number":7930,"period_min":92.420432142011,"perigee_km":387.2359350239,"apogee_km":399.09383888834,"semimajor_km":6771.3018869561,"source":"CELESTRAK","updated_at":"2026-05-25T13:38:02.973091Z"}}